date,time,SUV Intensity [MED/Hr],UV Index,Daily total [MED],Since Last [MED]
05/05/2023,00:01:23,0.001,0.0,0.0,0.0
05/05/2023,00:02:24,0.001,0.0,0.0,0.0
05/05/2023,00:03:24,-0.000,0.0,0.0,0.0
05/05/2023,00:04:24,0.000,0.0,0.0,0.0
05/05/2023,00:05:23,0.001,0.0,0.0,0.0
05/05/2023,00:06:24,0.000,0.0,0.0,0.0
05/05/2023,00:07:24,0.001,0.0,0.0,0.0
05/05/2023,00:08:24,0.001,0.0,0.0,0.0
05/05/2023,00:09:24,0.000,0.0,0.0,0.0
05/05/2023,00:10:24,0.000,0.0,0.0,0.0
05/05/2023,00:11:24,-0.001,0.0,0.0,0.0
05/05/2023,00:12:24,0.001,0.0,0.0,0.0
05/05/2023,00:13:24,-0.000,0.0,0.0,0.0
05/05/2023,00:14:23,0.000,0.0,0.0,0.0
05/05/2023,00:15:24,0.001,0.0,0.0,0.0
05/05/2023,00:16:24,0.000,0.0,0.0,0.0
05/05/2023,00:17:24,0.000,0.0,0.0,0.0
05/05/2023,00:18:23,0.001,0.0,0.0,0.0
05/05/2023,00:19:24,0.000,0.0,0.0,0.0
05/05/2023,00:20:23,0.000,0.0,0.0,0.0
05/05/2023,00:21:23,0.000,0.0,0.0,0.0
05/05/2023,00:22:23,0.000,0.0,0.0,0.0
05/05/2023,00:23:23,0.001,0.0,0.0,0.0
05/05/2023,00:24:23,0.001,0.0,0.0,0.0
05/05/2023,00:25:24,0.000,0.0,0.0,0.0
05/05/2023,00:26:24,-0.000,0.0,0.0,0.0
05/05/2023,00:27:24,-0.000,0.0,0.0,0.0
05/05/2023,00:28:24,0.000,0.0,0.0,0.0
05/05/2023,00:29:24,0.000,0.0,0.0,0.0
05/05/2023,00:30:23,0.000,0.0,0.0,0.0
05/05/2023,00:31:24,0.000,0.0,0.0,0.0
05/05/2023,00:32:24,0.001,0.0,0.0,0.0
05/05/2023,00:33:24,0.000,0.0,0.0,0.0
05/05/2023,00:34:23,0.000,0.0,0.0,0.0
05/05/2023,00:35:24,0.000,0.0,0.0,0.0
05/05/2023,00:36:24,0.000,0.0,0.0,0.0
05/05/2023,00:37:24,0.000,0.0,0.0,0.0
05/05/2023,00:38:24,0.000,0.0,0.0,0.0
05/05/2023,00:39:24,0.001,0.0,0.0,0.0
05/05/2023,00:40:24,0.001,0.0,0.0,0.0
05/05/2023,00:41:24,0.001,0.0,0.0,0.0
05/05/2023,00:42:23,0.000,0.0,0.0,0.0
05/05/2023,00:43:24,0.000,0.0,0.0,0.0
05/05/2023,00:44:24,0.000,0.0,0.0,0.0
05/05/2023,00:45:23,-0.000,0.0,0.0,0.0
05/05/2023,00:46:24,0.000,0.0,0.0,0.0
05/05/2023,00:47:24,0.000,0.0,0.0,0.0
05/05/2023,00:48:24,0.000,0.0,0.0,0.0
05/05/2023,00:49:24,0.000,0.0,0.0,0.0
05/05/2023,00:50:24,-0.001,0.0,0.0,0.0
05/05/2023,00:51:23,0.000,0.0,0.0,0.0
05/05/2023,00:52:24,0.001,0.0,0.0,0.0
05/05/2023,00:53:24,0.001,0.0,0.0,0.0
05/05/2023,00:54:24,0.001,0.0,0.0,0.0
05/05/2023,00:55:24,0.000,0.0,0.0,0.0
05/05/2023,00:56:24,0.000,0.0,0.0,0.0
05/05/2023,00:57:24,0.000,0.0,0.0,0.0
05/05/2023,00:58:23,-0.000,0.0,0.0,0.0
05/05/2023,00:59:24,0.000,0.0,0.0,0.0
05/05/2023,01:00:23,0.000,0.0,0.0,0.0
05/05/2023,01:01:24,0.000,0.0,0.0,0.0
05/05/2023,01:02:23,-0.001,0.0,0.0,0.0
05/05/2023,01:03:24,0.001,0.0,0.0,0.0
05/05/2023,01:04:24,0.000,0.0,0.0,0.0
05/05/2023,01:05:24,0.001,0.0,0.0,0.0
05/05/2023,01:06:24,0.000,0.0,0.0,0.0
05/05/2023,01:07:24,0.001,0.0,0.0,0.0
05/05/2023,01:08:24,0.000,0.0,0.0,0.0
05/05/2023,01:09:23,0.000,0.0,0.0,0.0
05/05/2023,01:10:24,0.000,0.0,0.0,0.0
05/05/2023,01:11:24,0.001,0.0,0.0,0.0
05/05/2023,01:12:24,0.000,0.0,0.0,0.0
05/05/2023,01:13:24,-0.000,0.0,0.0,0.0
05/05/2023,01:14:24,0.000,0.0,0.0,0.0
05/05/2023,01:15:24,0.001,0.0,0.0,0.0
05/05/2023,01:16:24,0.001,0.0,0.0,0.0
05/05/2023,01:17:24,0.000,0.0,0.0,0.0
05/05/2023,01:18:24,0.000,0.0,0.0,0.0
05/05/2023,01:19:24,0.000,0.0,0.0,0.0
05/05/2023,01:20:23,-0.001,0.0,0.0,0.0
05/05/2023,01:21:24,-0.001,0.0,0.0,0.0
05/05/2023,01:22:24,0.000,0.0,0.0,0.0
05/05/2023,01:23:24,0.000,0.0,0.0,0.0
05/05/2023,01:24:24,-0.001,0.0,0.0,0.0
05/05/2023,01:25:24,0.001,0.0,0.0,0.0
05/05/2023,01:26:24,0.000,0.0,0.0,0.0
05/05/2023,01:27:24,-0.001,0.0,0.0,0.0
05/05/2023,01:28:24,0.001,0.0,0.0,0.0
05/05/2023,01:29:24,0.000,0.0,0.0,0.0
05/05/2023,01:30:24,0.000,0.0,0.0,0.0
05/05/2023,01:31:24,0.000,0.0,0.0,0.0
05/05/2023,01:32:24,-0.000,0.0,0.0,0.0
05/05/2023,01:33:23,-0.000,0.0,0.0,0.0
05/05/2023,01:34:24,-0.001,0.0,0.0,0.0
05/05/2023,01:35:24,-0.000,0.0,0.0,0.0
05/05/2023,01:36:24,0.000,0.0,0.0,0.0
05/05/2023,01:37:24,0.000,0.0,0.0,0.0
05/05/2023,01:38:24,0.000,0.0,0.0,0.0
05/05/2023,01:39:24,0.001,0.0,0.0,0.0
05/05/2023,01:40:24,0.000,0.0,0.0,0.0
05/05/2023,01:41:24,0.000,0.0,0.0,0.0
05/05/2023,01:42:24,0.000,0.0,0.0,0.0
05/05/2023,01:43:24,0.000,0.0,0.0,0.0
05/05/2023,01:44:24,0.000,0.0,0.0,0.0
05/05/2023,01:45:24,-0.001,0.0,0.0,0.0
05/05/2023,01:46:24,0.000,0.0,0.0,0.0
05/05/2023,01:47:24,0.000,0.0,0.0,0.0
05/05/2023,01:48:24,0.001,0.0,0.0,0.0
05/05/2023,01:49:24,0.001,0.0,0.0,0.0
05/05/2023,01:50:24,0.001,0.0,0.0,0.0
05/05/2023,01:51:24,0.000,0.0,0.0,0.0
05/05/2023,01:52:24,-0.001,0.0,0.0,0.0
05/05/2023,01:53:23,0.000,0.0,0.0,0.0
05/05/2023,01:54:24,0.000,0.0,0.0,0.0
05/05/2023,01:55:24,0.000,0.0,0.0,0.0
05/05/2023,01:56:24,0.000,0.0,0.0,0.0
05/05/2023,01:57:24,-0.001,0.0,0.0,0.0
05/05/2023,01:58:24,-0.001,0.0,0.0,0.0
05/05/2023,01:59:24,0.000,0.0,0.0,0.0
05/05/2023,02:00:24,0.000,0.0,0.0,0.0
05/05/2023,02:01:24,0.000,0.0,0.0,0.0
05/05/2023,02:02:24,0.000,0.0,0.0,0.0
05/05/2023,02:03:25,0.001,0.0,0.0,0.0
05/05/2023,02:04:23,-0.001,0.0,0.0,0.0
05/05/2023,02:05:24,-0.001,0.0,0.0,0.0
05/05/2023,02:06:23,0.000,0.0,0.0,0.0
05/05/2023,02:07:24,0.001,0.0,0.0,0.0
05/05/2023,02:08:24,0.001,0.0,0.0,0.0
05/05/2023,02:09:24,0.000,0.0,0.0,0.0
05/05/2023,02:10:24,0.000,0.0,0.0,0.0
05/05/2023,02:11:24,-0.000,0.0,0.0,0.0
05/05/2023,02:12:25,0.001,0.0,0.0,0.0
05/05/2023,02:13:25,0.000,0.0,0.0,0.0
05/05/2023,02:14:23,0.001,0.0,0.0,0.0
05/05/2023,02:15:24,0.000,0.0,0.0,0.0
05/05/2023,02:16:24,-0.001,0.0,0.0,0.0
05/05/2023,02:17:24,-0.000,0.0,0.0,0.0
05/05/2023,02:18:24,0.000,0.0,0.0,0.0
05/05/2023,02:19:24,0.000,0.0,0.0,0.0
05/05/2023,02:20:24,0.000,0.0,0.0,0.0
05/05/2023,02:21:24,0.001,0.0,0.0,0.0
05/05/2023,02:22:24,0.000,0.0,0.0,0.0
05/05/2023,02:23:24,0.000,0.0,0.0,0.0
05/05/2023,02:24:24,0.000,0.0,0.0,0.0
05/05/2023,02:25:23,0.000,0.0,0.0,0.0
05/05/2023,02:26:24,-0.000,0.0,0.0,0.0
05/05/2023,02:27:24,0.000,0.0,0.0,0.0
05/05/2023,02:28:24,0.000,0.0,0.0,0.0
05/05/2023,02:29:24,-0.000,0.0,0.0,0.0
05/05/2023,02:30:24,-0.001,0.0,0.0,0.0
05/05/2023,02:31:24,0.001,0.0,0.0,0.0
05/05/2023,02:32:24,0.000,0.0,0.0,0.0
05/05/2023,02:33:24,0.000,0.0,0.0,0.0
05/05/2023,02:34:24,-0.001,0.0,0.0,0.0
05/05/2023,02:35:24,0.000,0.0,0.0,0.0
05/05/2023,02:36:24,0.000,0.0,0.0,0.0
05/05/2023,02:37:24,0.000,0.0,0.0,0.0
05/05/2023,02:38:24,0.000,0.0,0.0,0.0
05/05/2023,02:39:24,0.000,0.0,0.0,0.0
05/05/2023,02:40:24,0.000,0.0,0.0,0.0
05/05/2023,02:41:24,0.000,0.0,0.0,0.0
05/05/2023,02:42:24,0.001,0.0,0.0,0.0
05/05/2023,02:43:24,0.000,0.0,0.0,0.0
05/05/2023,02:44:24,-0.001,0.0,0.0,0.0
05/05/2023,02:45:25,0.000,0.0,0.0,0.0
05/05/2023,02:46:24,0.000,0.0,0.0,0.0
05/05/2023,02:47:24,0.000,0.0,0.0,0.0
05/05/2023,02:48:24,-0.000,0.0,0.0,0.0
05/05/2023,02:49:24,0.000,0.0,0.0,0.0
05/05/2023,02:50:24,0.000,0.0,0.0,0.0
05/05/2023,02:51:24,-0.000,0.0,0.0,0.0
05/05/2023,02:52:24,-0.000,0.0,0.0,0.0
05/05/2023,02:53:24,0.000,0.0,0.0,0.0
05/05/2023,02:54:24,0.000,0.0,0.0,0.0
05/05/2023,02:55:24,0.000,0.0,0.0,0.0
05/05/2023,02:56:24,0.001,0.0,0.0,0.0
05/05/2023,02:57:24,0.000,0.0,0.0,0.0
05/05/2023,02:58:24,0.000,0.0,0.0,0.0
05/05/2023,02:59:24,0.000,0.0,0.0,0.0
05/05/2023,03:00:24,0.000,0.0,0.0,0.0
05/05/2023,03:01:24,0.001,0.0,0.0,0.0
05/05/2023,03:02:24,0.000,0.0,0.0,0.0
05/05/2023,03:03:24,0.000,0.0,0.0,0.0
05/05/2023,03:04:24,0.000,0.0,0.0,0.0
05/05/2023,03:05:24,0.000,0.0,0.0,0.0
05/05/2023,03:06:24,-0.000,0.0,0.0,0.0
05/05/2023,03:07:24,0.000,0.0,0.0,0.0
05/05/2023,03:08:24,0.000,0.0,0.0,0.0
05/05/2023,03:09:24,0.001,0.0,0.0,0.0
05/05/2023,03:10:24,0.000,0.0,0.0,0.0
05/05/2023,03:11:24,0.000,0.0,0.0,0.0
05/05/2023,03:12:24,0.000,0.0,0.0,0.0
05/05/2023,03:13:24,0.001,0.0,0.0,0.0
05/05/2023,03:14:24,0.000,0.0,0.0,0.0
05/05/2023,03:15:24,0.000,0.0,0.0,0.0
05/05/2023,03:16:24,0.000,0.0,0.0,0.0
05/05/2023,03:17:24,0.000,0.0,0.0,0.0
05/05/2023,03:18:24,0.000,0.0,0.0,0.0
05/05/2023,03:19:24,0.001,0.0,0.0,0.0
05/05/2023,03:20:25,0.001,0.0,0.0,0.0
05/05/2023,03:21:25,0.000,0.0,0.0,0.0
05/05/2023,03:22:24,0.000,0.0,0.0,0.0
05/05/2023,03:23:25,0.000,0.0,0.0,0.0
05/05/2023,03:24:25,0.000,0.0,0.0,0.0
05/05/2023,03:25:24,0.001,0.0,0.0,0.0
05/05/2023,03:26:24,0.000,0.0,0.0,0.0
05/05/2023,03:27:24,0.000,0.0,0.0,0.0
05/05/2023,03:28:24,-0.001,0.0,0.0,0.0
05/05/2023,03:29:24,0.000,0.0,0.0,0.0
05/05/2023,03:30:24,0.001,0.0,0.0,0.0
05/05/2023,03:31:23,0.000,0.0,0.0,0.0
05/05/2023,03:32:24,0.000,0.0,0.0,0.0
05/05/2023,03:33:24,0.000,0.0,0.0,0.0
05/05/2023,03:34:24,0.000,0.0,0.0,0.0
05/05/2023,03:35:24,-0.000,0.0,0.0,0.0
05/05/2023,03:36:24,0.001,0.0,0.0,0.0
05/05/2023,03:37:24,0.000,0.0,0.0,0.0
05/05/2023,03:38:24,-0.001,0.0,0.0,0.0
05/05/2023,03:39:24,0.000,0.0,0.0,0.0
05/05/2023,03:40:24,-0.001,0.0,0.0,0.0
05/05/2023,03:41:25,0.000,0.0,0.0,0.0
05/05/2023,03:42:24,0.001,0.0,0.0,0.0
05/05/2023,03:43:24,0.000,0.0,0.0,0.0
05/05/2023,03:44:24,-0.000,0.0,0.0,0.0
05/05/2023,03:45:24,-0.001,0.0,0.0,0.0
05/05/2023,03:46:24,-0.001,0.0,0.0,0.0
05/05/2023,03:47:24,-0.001,0.0,0.0,0.0
05/05/2023,03:48:25,0.001,0.0,0.0,0.0
05/05/2023,03:49:24,0.000,0.0,0.0,0.0
05/05/2023,03:50:24,0.000,0.0,0.0,0.0
05/05/2023,03:51:24,-0.001,0.0,0.0,0.0
05/05/2023,03:52:24,-0.000,0.0,0.0,0.0
05/05/2023,03:53:24,0.000,0.0,0.0,0.0
05/05/2023,03:54:25,0.000,0.0,0.0,0.0
05/05/2023,03:55:24,-0.001,0.0,0.0,0.0
05/05/2023,03:56:24,-0.001,0.0,0.0,0.0
05/05/2023,03:57:24,0.000,0.0,0.0,0.0
05/05/2023,03:58:24,0.000,0.0,0.0,0.0
05/05/2023,03:59:24,0.000,0.0,0.0,0.0
05/05/2023,04:00:24,0.000,0.0,0.0,0.0
05/05/2023,04:01:24,0.000,0.0,0.0,0.0
05/05/2023,04:02:25,0.000,0.0,0.0,0.0
05/05/2023,04:03:24,0.000,0.0,0.0,0.0
05/05/2023,04:04:25,0.000,0.0,0.0,0.0
05/05/2023,04:05:24,0.000,0.0,0.0,0.0
05/05/2023,04:06:24,0.000,0.0,0.0,0.0
05/05/2023,04:07:24,-0.001,0.0,0.0,0.0
05/05/2023,04:08:24,0.001,0.0,0.0,0.0
05/05/2023,04:09:24,0.000,0.0,0.0,0.0
05/05/2023,04:10:24,0.000,0.0,0.0,0.0
05/05/2023,04:11:24,0.001,0.0,0.0,0.0
05/05/2023,04:12:24,0.000,0.0,0.0,0.0
05/05/2023,04:13:24,0.000,0.0,0.0,0.0
05/05/2023,04:14:24,0.000,0.0,0.0,0.0
05/05/2023,04:15:24,0.001,0.0,0.0,0.0
05/05/2023,04:16:25,0.001,0.0,0.0,0.0
05/05/2023,04:17:24,-0.000,0.0,0.0,0.0
05/05/2023,04:18:24,0.000,0.0,0.0,0.0
05/05/2023,04:19:24,-0.000,0.0,0.0,0.0
05/05/2023,04:20:25,-0.000,0.0,0.0,0.0
05/05/2023,04:21:24,-0.000,0.0,0.0,0.0
05/05/2023,04:22:24,0.002,0.0,0.0,0.0
05/05/2023,04:23:24,0.000,0.0,0.0,0.0
05/05/2023,04:24:25,0.001,0.0,0.0,0.0
05/05/2023,04:25:24,0.001,0.0,0.0,0.0
05/05/2023,04:26:25,0.002,0.0,0.0,0.0
05/05/2023,04:27:25,0.000,0.0,0.0,0.0
05/05/2023,04:28:24,0.001,0.0,0.0,0.0
05/05/2023,04:29:24,0.002,0.0,0.0,0.0
05/05/2023,04:30:25,0.002,0.0,0.0,0.0
05/05/2023,04:31:24,0.000,0.0,0.0,0.0
05/05/2023,04:32:25,0.002,0.0,0.0,0.0
05/05/2023,04:33:24,0.001,0.0,0.0,0.0
05/05/2023,04:34:24,0.001,0.0,0.0,0.0
05/05/2023,04:35:24,0.001,0.0,0.0,0.0
05/05/2023,04:36:24,0.001,0.0,0.0,0.0
05/05/2023,04:37:24,0.000,0.0,0.0,0.0
05/05/2023,04:38:24,0.000,0.0,0.0,0.0
05/05/2023,04:39:24,0.001,0.0,0.0,0.0
05/05/2023,04:40:25,0.002,0.0,0.0,0.0
05/05/2023,04:41:24,0.002,0.0,0.0,0.0
05/05/2023,04:42:24,0.002,0.0,0.0,0.0
05/05/2023,04:43:24,0.001,0.0,0.0,0.0
05/05/2023,04:44:24,0.002,0.0,0.0,0.0
05/05/2023,04:45:24,0.003,0.0,0.0,0.0
05/05/2023,04:46:24,0.002,0.0,0.0,0.0
05/05/2023,04:47:25,0.003,0.0,0.0,0.0
05/05/2023,04:48:24,0.003,0.0,0.0,0.0
05/05/2023,04:49:24,0.003,0.0,0.0,0.0
05/05/2023,04:50:24,0.003,0.0,0.0,0.0
05/05/2023,04:51:24,0.003,0.0,0.0,0.0
05/05/2023,04:52:24,0.003,0.0,0.0,0.0
05/05/2023,04:53:24,0.003,0.0,0.0,0.0
05/05/2023,04:54:24,0.004,0.0,0.0,0.0
05/05/2023,04:55:25,0.004,0.0,0.0,0.0
05/05/2023,04:56:24,0.003,0.0,0.0,0.0
05/05/2023,04:57:24,0.004,0.0,0.0,0.0
05/05/2023,04:58:24,0.004,0.0,0.0,0.0
05/05/2023,04:59:24,0.005,0.0,0.0,0.0
05/05/2023,05:00:24,0.003,0.0,0.0,0.0
05/05/2023,05:01:25,0.004,0.0,0.0,0.0
05/05/2023,05:02:25,0.005,0.0,0.0,0.0
05/05/2023,05:03:24,0.005,0.0,0.0,0.0
05/05/2023,05:04:24,0.005,0.0,0.0,0.0
05/05/2023,05:05:24,0.005,0.0,0.0,0.0
05/05/2023,05:06:24,0.005,0.0,0.0,0.0
05/05/2023,05:07:24,0.005,0.0,0.0,0.0
05/05/2023,05:08:24,0.005,0.0,0.0,0.0
05/05/2023,05:09:24,0.006,0.0,0.0,0.0
05/05/2023,05:10:24,0.005,0.0,0.0,0.0
05/05/2023,05:11:25,0.006,0.0,0.0,0.0
05/05/2023,05:12:25,0.006,0.0,0.0,0.0
05/05/2023,05:13:24,0.006,0.0,0.0,0.0
05/05/2023,05:14:25,0.007,0.0,0.0,0.0
05/05/2023,05:15:24,0.006,0.0,0.0,0.0
05/05/2023,05:16:24,0.007,0.0,0.001,0.001
05/05/2023,05:17:24,0.008,0.0,0.001,0.0
05/05/2023,05:18:24,0.007,0.0,0.001,0.0
05/05/2023,05:19:24,0.009,0.0,0.001,0.0
05/05/2023,05:20:24,0.008,0.0,0.001,0.0
05/05/2023,05:21:24,0.010,0.0,0.001,0.0
05/05/2023,05:22:24,0.008,0.0,0.001,0.0
05/05/2023,05:23:24,0.009,0.0,0.002,0.001
05/05/2023,05:24:24,0.011,0.0,0.002,0.0
05/05/2023,05:25:24,0.011,0.0,0.002,0.0
05/05/2023,05:26:24,0.013,0.0,0.002,0.0
05/05/2023,05:27:24,0.014,0.0,0.002,0.0
05/05/2023,05:28:24,0.014,0.0,0.003,0.001
05/05/2023,05:29:25,0.015,0.0,0.003,0.0
05/05/2023,05:30:24,0.016,0.0,0.003,0.0
05/05/2023,05:31:24,0.015,0.0,0.003,0.0
05/05/2023,05:32:24,0.016,0.0,0.004,0.001
05/05/2023,05:33:24,0.017,0.0,0.004,0.0
05/05/2023,05:34:24,0.019,0.0,0.004,0.0
05/05/2023,05:35:24,0.019,0.0,0.004,0.0
05/05/2023,05:36:24,0.020,0.0,0.005,0.001
05/05/2023,05:37:24,0.021,0.0,0.005,0.0
05/05/2023,05:38:24,0.022,0.0,0.005,0.0
05/05/2023,05:39:24,0.024,0.0,0.006,0.001
05/05/2023,05:40:24,0.025,0.0,0.006,0.0
05/05/2023,05:41:24,0.026,0.0,0.007,0.001
05/05/2023,05:42:25,0.027,0.0,0.007,0.0
05/05/2023,05:43:25,0.028,0.0,0.008,0.001
05/05/2023,05:44:25,0.029,0.0,0.008,0.0
05/05/2023,05:45:25,0.030,0.0,0.009,0.001
05/05/2023,05:46:25,0.032,0.0,0.009,0.0
05/05/2023,05:47:25,0.033,0.0,0.01,0.001
05/05/2023,05:48:25,0.036,0.0,0.01,0.0
05/05/2023,05:49:25,0.038,0.0,0.011,0.001
05/05/2023,05:50:24,0.039,0.0,0.011,0.0
05/05/2023,05:51:24,0.041,0.0,0.012,0.001
05/05/2023,05:52:24,0.043,0.0,0.013,0.001
05/05/2023,05:53:24,0.045,0.0,0.014,0.001
05/05/2023,05:54:25,0.047,0.0,0.014,0.0
05/05/2023,05:55:24,0.049,0.0,0.015,0.001
05/05/2023,05:56:24,0.050,0.0,0.016,0.001
05/05/2023,05:57:24,0.051,0.0,0.017,0.001
05/05/2023,05:58:24,0.053,0.0,0.018,0.001
05/05/2023,05:59:24,0.053,0.0,0.019,0.001
05/05/2023,06:00:25,0.054,0.0,0.019,0.0
05/05/2023,06:01:25,0.054,0.0,0.02,0.001
05/05/2023,06:02:25,0.056,0.0,0.021,0.001
05/05/2023,06:03:25,0.056,0.0,0.022,0.001
05/05/2023,06:04:24,0.055,0.0,0.023,0.001
05/05/2023,06:05:24,0.053,0.0,0.024,0.001
05/05/2023,06:06:24,0.049,0.0,0.025,0.001
05/05/2023,06:07:24,0.047,0.0,0.026,0.001
05/05/2023,06:08:24,0.045,0.0,0.026,0.0
05/05/2023,06:09:24,0.044,0.0,0.027,0.001
05/05/2023,06:10:24,0.043,0.0,0.028,0.001
05/05/2023,06:11:25,0.046,0.0,0.029,0.001
05/05/2023,06:12:25,0.048,0.0,0.029,0.0
05/05/2023,06:13:25,0.050,0.0,0.03,0.001
05/05/2023,06:14:24,0.053,0.0,0.031,0.001
05/05/2023,06:15:25,0.057,0.0,0.032,0.001
05/05/2023,06:16:25,0.058,0.0,0.033,0.001
05/05/2023,06:17:25,0.064,0.0,0.034,0.001
05/05/2023,06:18:25,0.068,0.0,0.035,0.001
05/05/2023,06:19:25,0.071,0.0,0.036,0.001
05/05/2023,06:20:27,0.072,0.0,0.038,0.002
05/05/2023,06:21:25,0.074,0.0,0.039,0.001
05/05/2023,06:22:24,0.077,0.0,0.04,0.001
05/05/2023,06:23:24,0.078,0.0,0.041,0.001
05/05/2023,06:24:24,0.079,0.0,0.043,0.002
05/05/2023,06:25:24,0.079,0.0,0.044,0.001
05/05/2023,06:26:24,0.079,0.0,0.045,0.001
05/05/2023,06:27:25,0.079,0.0,0.047,0.002
05/05/2023,06:28:24,0.078,0.0,0.048,0.001
05/05/2023,06:29:25,0.076,0.0,0.049,0.001
05/05/2023,06:30:25,0.078,0.0,0.05,0.001
05/05/2023,06:31:25,0.078,0.0,0.052,0.002
05/05/2023,06:32:24,0.077,0.0,0.053,0.001
05/05/2023,06:33:24,0.076,0.0,0.054,0.001
05/05/2023,06:34:24,0.072,0.0,0.056,0.002
05/05/2023,06:35:24,0.069,0.0,0.057,0.001
05/05/2023,06:36:24,0.062,0.0,0.058,0.001
05/05/2023,06:37:26,0.055,0.0,0.059,0.001
05/05/2023,06:38:24,0.053,0.0,0.06,0.001
05/05/2023,06:39:24,0.059,0.0,0.061,0.001
05/05/2023,06:40:24,0.065,0.0,0.062,0.001
05/05/2023,06:41:24,0.071,0.0,0.063,0.001
05/05/2023,06:42:24,0.076,0.0,0.064,0.001
05/05/2023,06:43:25,0.079,0.0,0.065,0.001
05/05/2023,06:44:25,0.081,0.0,0.067,0.002
05/05/2023,06:45:25,0.084,0.0,0.068,0.001
05/05/2023,06:46:24,0.092,0.0,0.069,0.001
05/05/2023,06:47:24,0.101,0.0,0.071,0.002
05/05/2023,06:48:24,0.114,0.0,0.073,0.002
05/05/2023,06:49:24,0.127,0.0,0.075,0.002
05/05/2023,06:50:25,0.143,0.0,0.077,0.002
05/05/2023,06:51:25,0.155,0.0,0.08,0.003
05/05/2023,06:52:24,0.160,0.0,0.082,0.002
05/05/2023,06:53:24,0.164,0.0,0.085,0.003
05/05/2023,06:54:24,0.163,0.0,0.088,0.003
05/05/2023,06:55:25,0.158,0.0,0.09,0.002
05/05/2023,06:56:25,0.159,0.0,0.093,0.003
05/05/2023,06:57:24,0.159,0.0,0.096,0.003
05/05/2023,06:58:24,0.163,0.0,0.098,0.002
05/05/2023,06:59:25,0.160,0.0,0.101,0.003
05/05/2023,07:00:25,0.161,0.0,0.104,0.003
05/05/2023,07:01:25,0.159,0.0,0.106,0.002
05/05/2023,07:02:24,0.155,0.0,0.109,0.003
05/05/2023,07:03:24,0.146,0.0,0.112,0.003
05/05/2023,07:04:24,0.141,0.0,0.114,0.002
05/05/2023,07:05:24,0.138,0.0,0.116,0.002
05/05/2023,07:06:25,0.143,0.0,0.119,0.003
05/05/2023,07:07:25,0.153,0.0,0.121,0.002
05/05/2023,07:08:24,0.164,0.0,0.124,0.003
05/05/2023,07:09:25,0.171,0.0,0.126,0.002
05/05/2023,07:10:24,0.172,0.0,0.129,0.003
05/05/2023,07:11:25,0.169,0.0,0.132,0.003
05/05/2023,07:12:25,0.172,0.0,0.135,0.003
05/05/2023,07:13:30,0.177,0.0,0.138,0.003
05/05/2023,07:14:25,0.178,0.0,0.141,0.003
05/05/2023,07:15:25,0.173,0.0,0.144,0.003
05/05/2023,07:16:24,0.163,0.0,0.147,0.003
05/05/2023,07:17:26,0.152,0.0,0.149,0.002
05/05/2023,07:18:26,0.153,0.0,0.152,0.003
05/05/2023,07:19:25,0.163,0.0,0.154,0.002
05/05/2023,07:20:25,0.181,0.0,0.157,0.003
05/05/2023,07:21:25,0.201,0.0,0.161,0.004
05/05/2023,07:22:25,0.204,0.0,0.164,0.003
05/05/2023,07:23:24,0.209,0.0,0.167,0.003
05/05/2023,07:24:24,0.220,1.0,0.171,0.004
05/05/2023,07:25:25,0.235,1.0,0.175,0.004
05/05/2023,07:26:24,0.251,1.0,0.179,0.004
05/05/2023,07:27:25,0.263,1.0,0.183,0.004
05/05/2023,07:28:25,0.267,1.0,0.187,0.004
05/05/2023,07:29:25,0.256,1.0,0.192,0.005
05/05/2023,07:30:25,0.237,1.0,0.196,0.004
05/05/2023,07:31:25,0.229,1.0,0.2,0.004
05/05/2023,07:32:24,0.240,1.0,0.204,0.004
05/05/2023,07:33:24,0.238,1.0,0.208,0.004
05/05/2023,07:34:24,0.242,1.0,0.212,0.004
05/05/2023,07:35:25,0.251,1.0,0.216,0.004
05/05/2023,07:36:25,0.246,1.0,0.22,0.004
05/05/2023,07:37:25,0.246,1.0,0.224,0.004
05/05/2023,07:38:25,0.253,1.0,0.228,0.004
05/05/2023,07:39:25,0.253,1.0,0.232,0.004
05/05/2023,07:40:25,0.257,1.0,0.237,0.005
05/05/2023,07:41:24,0.254,1.0,0.241,0.004
05/05/2023,07:42:25,0.239,1.0,0.245,0.004
05/05/2023,07:43:24,0.234,1.0,0.249,0.004
05/05/2023,07:44:25,0.244,1.0,0.253,0.004
05/05/2023,07:45:25,0.242,1.0,0.257,0.004
05/05/2023,07:46:24,0.269,1.0,0.261,0.004
05/05/2023,07:47:25,0.274,1.0,0.266,0.005
05/05/2023,07:48:25,0.266,1.0,0.27,0.004
05/05/2023,07:49:24,0.251,1.0,0.275,0.005
05/05/2023,07:50:24,0.239,1.0,0.279,0.004
05/05/2023,07:51:24,0.217,0.0,0.283,0.004
05/05/2023,07:52:26,0.200,0.0,0.286,0.003
05/05/2023,07:53:24,0.208,0.0,0.289,0.003
05/05/2023,07:54:24,0.196,0.0,0.293,0.004
05/05/2023,07:55:24,0.173,0.0,0.296,0.003
05/05/2023,07:56:25,0.178,0.0,0.299,0.003
05/05/2023,07:57:25,0.174,0.0,0.302,0.003
05/05/2023,07:58:25,0.171,0.0,0.305,0.003
05/05/2023,07:59:24,0.184,0.0,0.308,0.003
05/05/2023,08:00:25,0.206,0.0,0.311,0.003
05/05/2023,08:01:24,0.192,0.0,0.314,0.003
05/05/2023,08:02:24,0.184,0.0,0.317,0.003
05/05/2023,08:03:24,0.198,0.0,0.32,0.003
05/05/2023,08:04:25,0.204,0.0,0.324,0.004
05/05/2023,08:05:25,0.189,0.0,0.327,0.003
05/05/2023,08:06:24,0.168,0.0,0.33,0.003
05/05/2023,08:07:25,0.164,0.0,0.333,0.003
05/05/2023,08:08:25,0.172,0.0,0.336,0.003
05/05/2023,08:09:25,0.170,0.0,0.338,0.002
05/05/2023,08:10:24,0.183,0.0,0.341,0.003
05/05/2023,08:11:24,0.232,1.0,0.345,0.004
05/05/2023,08:12:24,0.317,1.0,0.349,0.004
05/05/2023,08:13:25,0.394,1.0,0.355,0.006
05/05/2023,08:14:25,0.413,1.0,0.362,0.007
05/05/2023,08:15:25,0.433,1.0,0.369,0.007
05/05/2023,08:16:25,0.451,1.0,0.376,0.007
05/05/2023,08:17:25,0.449,1.0,0.384,0.008
05/05/2023,08:18:24,0.441,1.0,0.391,0.007
05/05/2023,08:19:24,0.418,1.0,0.398,0.007
05/05/2023,08:20:24,0.362,1.0,0.405,0.007
05/05/2023,08:21:25,0.290,1.0,0.41,0.005
05/05/2023,08:22:25,0.260,1.0,0.415,0.005
05/05/2023,08:23:24,0.254,1.0,0.419,0.004
05/05/2023,08:24:25,0.255,1.0,0.423,0.004
05/05/2023,08:25:25,0.254,1.0,0.428,0.005
05/05/2023,08:26:24,0.279,1.0,0.432,0.004
05/05/2023,08:27:24,0.294,1.0,0.437,0.005
05/05/2023,08:28:25,0.289,1.0,0.442,0.005
05/05/2023,08:29:25,0.301,1.0,0.447,0.005
05/05/2023,08:30:25,0.313,1.0,0.452,0.005
05/05/2023,08:31:24,0.302,1.0,0.457,0.005
05/05/2023,08:32:25,0.255,1.0,0.462,0.005
05/05/2023,08:33:24,0.226,1.0,0.466,0.004
05/05/2023,08:34:25,0.227,1.0,0.469,0.003
05/05/2023,08:35:25,0.237,1.0,0.473,0.004
05/05/2023,08:36:25,0.273,1.0,0.477,0.004
05/05/2023,08:37:25,0.289,1.0,0.482,0.005
05/05/2023,08:38:24,0.312,1.0,0.487,0.005
05/05/2023,08:39:24,0.357,1.0,0.493,0.006
05/05/2023,08:40:24,0.381,1.0,0.499,0.006
05/05/2023,08:41:25,0.380,1.0,0.505,0.006
05/05/2023,08:42:25,0.361,1.0,0.511,0.006
05/05/2023,08:43:24,0.366,1.0,0.517,0.006
05/05/2023,08:44:25,0.378,1.0,0.524,0.007
05/05/2023,08:45:25,0.357,1.0,0.53,0.006
05/05/2023,08:46:25,0.339,1.0,0.536,0.006
05/05/2023,08:47:24,0.357,1.0,0.541,0.005
05/05/2023,08:48:24,0.385,1.0,0.548,0.007
05/05/2023,08:49:24,0.400,1.0,0.554,0.006
05/05/2023,08:50:25,0.409,1.0,0.561,0.007
05/05/2023,08:51:25,0.413,1.0,0.568,0.007
05/05/2023,08:52:25,0.417,1.0,0.575,0.007
05/05/2023,08:53:25,0.418,1.0,0.582,0.007
05/05/2023,08:54:24,0.420,1.0,0.589,0.007
05/05/2023,08:55:24,0.425,1.0,0.596,0.007
05/05/2023,08:56:24,0.430,1.0,0.603,0.007
05/05/2023,08:57:25,0.438,1.0,0.61,0.007
05/05/2023,08:58:25,0.442,1.0,0.617,0.007
05/05/2023,08:59:24,0.449,1.0,0.625,0.008
05/05/2023,09:00:25,0.450,1.0,0.632,0.007
05/05/2023,09:01:25,0.451,1.0,0.64,0.008
05/05/2023,09:02:25,0.451,1.0,0.647,0.007
05/05/2023,09:03:25,0.445,1.0,0.655,0.008
05/05/2023,09:04:25,0.428,1.0,0.662,0.007
05/05/2023,09:05:25,0.401,1.0,0.669,0.007
05/05/2023,09:06:25,0.391,1.0,0.676,0.007
05/05/2023,09:07:24,0.395,1.0,0.682,0.006
05/05/2023,09:08:25,0.399,1.0,0.689,0.007
05/05/2023,09:09:25,0.411,1.0,0.695,0.006
05/05/2023,09:10:25,0.438,1.0,0.703,0.008
05/05/2023,09:11:25,0.461,1.0,0.71,0.007
05/05/2023,09:12:25,0.488,1.0,0.718,0.008
05/05/2023,09:13:25,0.522,1.0,0.727,0.009
05/05/2023,09:14:25,0.558,1.0,0.735,0.008
05/05/2023,09:15:24,0.590,1.0,0.745,0.01
05/05/2023,09:16:24,0.610,1.0,0.755,0.01
05/05/2023,09:17:24,0.620,1.0,0.765,0.01
05/05/2023,09:18:25,0.622,1.0,0.776,0.011
05/05/2023,09:19:25,0.600,1.0,0.786,0.01
05/05/2023,09:20:25,0.561,1.0,0.796,0.01
05/05/2023,09:21:25,0.505,1.0,0.804,0.008
05/05/2023,09:22:24,0.509,1.0,0.813,0.009
05/05/2023,09:23:25,0.543,1.0,0.821,0.008
05/05/2023,09:24:26,0.547,1.0,0.831,0.01
05/05/2023,09:25:25,0.575,1.0,0.84,0.009
05/05/2023,09:26:24,0.631,1.0,0.85,0.01
05/05/2023,09:27:25,0.705,2.0,0.861,0.011
05/05/2023,09:28:25,0.810,2.0,0.874,0.013
05/05/2023,09:29:25,0.833,2.0,0.887,0.013
05/05/2023,09:30:25,0.732,2.0,0.9,0.013
05/05/2023,09:31:25,0.730,2.0,0.913,0.013
05/05/2023,09:32:25,0.616,1.0,0.924,0.011
05/05/2023,09:33:25,0.543,1.0,0.934,0.01
05/05/2023,09:34:25,0.477,1.0,0.942,0.008
05/05/2023,09:35:25,0.440,1.0,0.95,0.008
05/05/2023,09:36:24,0.453,1.0,0.957,0.007
05/05/2023,09:37:25,0.493,1.0,0.965,0.008
05/05/2023,09:38:25,0.446,1.0,0.973,0.008
05/05/2023,09:39:24,0.440,1.0,0.98,0.007
05/05/2023,09:40:24,0.496,1.0,0.989,0.009
05/05/2023,09:41:25,0.500,1.0,0.997,0.008
05/05/2023,09:42:25,0.479,1.0,1.005,0.008
05/05/2023,09:43:25,0.449,1.0,1.013,0.008
05/05/2023,09:44:24,0.405,1.0,1.02,0.007
05/05/2023,09:45:25,0.384,1.0,1.026,0.006
05/05/2023,09:46:25,0.458,1.0,1.033,0.007
05/05/2023,09:47:25,0.741,2.0,1.043,0.01
05/05/2023,09:48:25,0.801,2.0,1.057,0.014
05/05/2023,09:49:25,0.796,2.0,1.071,0.014
05/05/2023,09:50:24,0.832,2.0,1.084,0.013
05/05/2023,09:51:25,1.009,2.0,1.1,0.016
05/05/2023,09:52:25,1.036,2.0,1.115,0.015
05/05/2023,09:53:25,1.056,2.0,1.134,0.019
05/05/2023,09:54:25,1.045,2.0,1.151,0.017
05/05/2023,09:55:24,1.223,3.0,1.168,0.017
05/05/2023,09:56:24,1.095,2.0,1.187,0.019
05/05/2023,09:57:24,0.985,2.0,1.203,0.016
05/05/2023,09:58:24,0.989,2.0,1.22,0.017
05/05/2023,09:59:25,0.877,2.0,1.237,0.017
05/05/2023,10:00:25,0.940,2.0,1.251,0.014